User: anonymous   Login
Location: Blanot
(47.1713°N, 4.2340°E)
Time: 00:25:25
(UTC+00:00)
Language:

Meteor 1-20 Rocket - Orbit

View from above orbital plane
View from above orbital plane
View from above satellite
View from above satellite

Ground track
Ground track

The orbit data is extracted from the following two-line orbital elements,

1  7575U 74099B   20273.39316283 +.00000097 +00000-0 +46106-4 0  9999
2  7575 081.2464 223.5400 0051444 107.2666 253.4144 14.11075332355646
Epoch (UTC): 29 September 2020 09:26:09
Eccentricity: 0.0051444
inclination: 81.2464°
perigee height: 818 km
apogee height: 893 km
right ascension of ascending node: 223.5400°
argument of perigee: 107.2666°
revolutions per day: 14.11075332
mean anomaly at epoch: 253.4144°
orbit number at epoch: 35564

The dashed part of the orbit path shows where the satellite is in the earth's shadow,  

DLR